Location: Ertinghausen
(51.6624°N, 9.7874°E)
Time: 13:23:15
(UTC+00:00)

CZ-2C R/B - Pass Details

Date: 14 August 2024
Orbit: 703 x 903 km, 98.2° (Epoch: 14 September)

Event Time Altitude Azimuth Distance (km) Brightness Sun altitude
Rises 01:11:52 0° 16° (NNE) 3,198 7.7 -20.2°
Reaches altitude 10° 01:14:09 10° 20° (NNE) 2,295 6.7 -20.0°
Maximum altitude 01:19:10 63° 102° (ESE) 879 3.3 -19.6°
Enters shadow 01:21:44 30° 173° (S) 1,408 3.9 -19.4°
